Time,TemperatureF,DewpointF,PressureIn,WindDirection,WindDirectionDegrees,WindSpeedMPH,WindSpeedGustMPH,Humidity,HourlyPrecipIn,Conditions,Clouds,dailyrainin,SolarRadiationWatts/m^2,SoftwareType,DateUTC
2013-06-24 02:00:00,46.0,46.0,-100.00,ESE,120,3.0,5.0,97,-99.99,,,0.00,-0.200000,,2013-06-24 09:00:00,
2013-06-24 03:00:00,46.0,46.0,-100.00,South,173,3.0,5.0,98,-99.99,,,0.00,-0.200000,,2013-06-24 10:00:00,
2013-06-24 04:00:00,46.0,46.0,-100.00,East,100,3.0,6.0,98,-99.99,,,0.01,-0.200000,,2013-06-24 11:00:00,
2013-06-24 05:00:00,46.0,45.0,-100.00,SE,141,3.0,6.0,95,-99.99,,,0.00,-0.200000,,2013-06-24 12:00:00,
2013-06-24 06:00:00,46.0,44.0,-100.00,South,188,3.0,6.0,93,-99.99,,,0.00,14.700000,,2013-06-24 13:00:00,
2013-06-24 07:00:00,47.0,44.0,-100.00,ESE,112,4.0,6.0,90,-99.99,,,0.00,53.000000,,2013-06-24 14:00:00,
2013-06-24 08:00:00,47.0,44.0,-100.00,South,185,2.0,5.0,89,-99.99,,,0.00,93.400002,,2013-06-24 15:00:00,
2013-06-24 09:00:00,48.0,45.0,-100.00,SSE,165,3.0,5.0,90,-99.99,,,0.01,143.100006,,2013-06-24 16:00:00,
2013-06-24 10:00:00,48.0,45.0,-100.00,SW,219,3.0,6.0,88,-99.99,,,0.01,238.500000,,2013-06-24 17:00:00,
2013-06-24 12:00:00,49.0,44.0,-100.00,South,173,3.0,5.0,84,-99.99,,,0.02,346.600006,,2013-06-24 19:00:00,
2013-06-24 13:00:00,53.0,46.0,-100.00,SSE,151,3.0,6.0,78,-99.99,,,0.01,665.700012,,2013-06-24 20:00:00,
2013-06-24 14:00:00,50.0,42.0,-100.00,South,177,3.0,5.0,73,-99.99,,,0.00,515.799988,,2013-06-24 21:00:00,
2013-06-24 14:54:00,51.0,42.0,-100.00,South,177,3.0,5.0,73,-99.99,,,0.00,515.799988,,2013-06-24 21:54:00,
2013-06-24 15:00:00,49.0,40.0,-100.00,WSW,247,3.0,7.0,72,-99.99,,,0.00,364.200012,,2013-06-24 22:00:00,
2013-06-24 15:50:00,49.0,40.0,-100.00,WSW,247,3.0,7.0,72,-99.99,,,0.00,364.200012,,2013-06-24 22:50:00,
2013-06-24 16:00:00,47.0,40.0,-100.00,SSE,150,4.0,6.0,77,-99.99,,,-99.99,292.500000,,2013-06-24 23:00:00,
2013-06-24 16:46:00,47.0,40.0,-100.00,SSE,150,4.0,6.0,77,-99.99,,,-99.99,292.500000,,2013-06-24 23:46:00,
2013-06-24 16:54:00,47.0,40.0,-100.00,SSE,150,4.0,6.0,77,-99.99,,,-99.99,292.500000,,2013-06-24 23:54:00,
2013-06-24 18:00:00,49.0,44.0,-100.00,South,183,3.0,6.0,80,-99.99,,,0.01,349.200012,,2013-06-25 01:00:00,
2013-06-24 19:00:00,47.0,42.0,-100.00,SSE,164,2.0,5.0,83,-99.99,,,0.01,100.400002,,2013-06-25 02:00:00,
2013-06-24 20:00:00,46.0,42.0,-100.00,ENE,62,2.0,4.0,87,-99.99,,,0.01,46.799999,,2013-06-25 03:00:00,
2013-06-24 21:00:00,45.0,40.0,-100.00,SSW,204,3.0,6.0,84,-99.99,,,0.01,10.800000,,2013-06-25 04:00:00,
2013-06-24 22:00:00,44.0,38.0,-100.00,SSE,163,3.0,5.0,79,-99.99,,,0.01,0.200000,,2013-06-25 05:00:00,
2013-06-24 23:00:00,42.0,37.0,-100.00,East,95,2.0,4.0,81,-99.99,,,0.00,-0.200000,,2013-06-25 06:00:00,